Palmer, AK

3:02 PM AKDT on July 26, 2017 (GMT -0800)
Palmer Municipal

Weather History for PAAQ - November, 2013

Change the Weather History Date:

Wednesday, November 13, 2013

  Actual Average Record
Temperature  
Mean Temperature 20 °F -  
Max Temperature 24 °F 27 °F 49 °F (1967)
Min Temperature 17 °F 13 °F -16 °F (1989)
Degree Days  
Heating Degree Days 44    
Moisture  
Dew Point 16 °F    
Average Humidity 81    
Maximum Humidity 92    
Minimum Humidity 68    
Precipitation  
Precipitation 0.00 in - - ()
Sea Level Pressure  
Sea Level Pressure 30.19 in    
Wind  
Wind Speed 2 mph (North)    
Max Wind Speed 8 mph    
Max Gust Speed -    
Visibility 10 miles    
Events      
Averages and records for this station are not official NWS values.
T = Trace of Precipitation, MM = Missing Value Source: NWS Daily Summary

Daily Weather History Graph

Daily Weather History Graph

Search for Another Location

Airport or City:

Trip Planner

Search our weather history database for the weather conditions in past years. The results will help you decide how hot, cold, wet, or windy it might be!

Date:

Astronomy

Nov. 13, 2013 Rise Set
Actual Time 9:00 AM AKST 4:19 PM AKST
Civil Twilight 8:08 AM AKST 5:11 PM AKST
Nautical Twilight 7:14 AM AKST 6:06 PM AKST
Astronomical Twilight 6:22 AM AKST 6:57 PM AKST
Moon 3:09 PM AKST (11/13) 3:59 AM AKST (11/13)
Length of Visible Light 9h 03m
Length of Day
7h 19m
Waxing Gibbous, 86% of the Moon is Illuminated
Nov 13
Waxing Gibbous
Nov 17
Full
Nov 25
Last Quarter
Dec 2
New
Dec 9
First Quarter

Hourly Weather History & Observations

Time (AKST) Temp. Windchill Dew Point Humidity Pressure Visibility Wind Dir Wind Speed Gust Speed Precip Events Conditions
12:53 AM 17.1 °F 11.7 °F 14.0 °F 88% 30.15 in 10.0 mi NNE 3.5 mph - N/A   Overcast
1:53 AM 17.1 °F 11.7 °F 12.0 °F 81% 30.14 in 10.0 mi NNW 3.5 mph - N/A   Overcast
2:53 AM 18.0 °F - 12.9 °F 81% 30.14 in 10.0 mi Calm Calm - N/A   Overcast
3:53 AM 19.0 °F - 15.1 °F 85% 30.15 in 10.0 mi Calm Calm - N/A   Overcast
4:53 AM 19.0 °F - 15.1 °F 85% 30.16 in 10.0 mi Calm Calm - N/A   Overcast
5:53 AM 19.0 °F - 15.1 °F 85% 30.16 in 10.0 mi Calm Calm - N/A   Overcast
6:53 AM 19.9 °F - 16.0 °F 85% 30.18 in 10.0 mi Calm Calm - N/A   Overcast
7:53 AM 19.9 °F - 17.1 °F 89% 30.18 in 10.0 mi Calm Calm - N/A   Overcast
8:53 AM 21.0 °F - 15.1 °F 78% 30.19 in 10.0 mi Calm Calm - N/A   Overcast
9:53 AM 21.9 °F - 16.0 °F 78% 30.21 in 10.0 mi Calm Calm - N/A   Overcast
10:53 AM 23.0 °F 18.4 °F 14.0 °F 68% 30.22 in 10.0 mi North 3.5 mph - N/A   Overcast
11:53 AM 24.1 °F - 15.1 °F 69% 30.22 in 10.0 mi Calm Calm - N/A   Overcast
12:53 PM 24.1 °F 19.7 °F 15.1 °F 69% 30.24 in 10.0 mi NNW 3.5 mph - N/A   Overcast
1:53 PM 24.1 °F - 18.0 °F 77% 30.25 in 10.0 mi Calm Calm - N/A   Overcast
2:53 PM 24.1 °F - 19.9 °F 84% 30.24 in 10.0 mi Calm Calm - N/A   Overcast
3:53 PM 24.1 °F - 19.9 °F 84% 30.24 in 10.0 mi Calm Calm - N/A   Scattered Clouds
4:53 PM 19.0 °F - 17.1 °F 92% 30.20 in 10.0 mi Calm Calm - N/A   Scattered Clouds
5:53 PM 24.1 °F 19.7 °F 19.9 °F 84% 30.21 in 10.0 mi North 3.5 mph - N/A   Overcast
6:53 PM 24.1 °F 19.7 °F 17.1 °F 75% 30.21 in 10.0 mi NNW 3.5 mph - N/A   Overcast
7:53 PM 23.0 °F - 17.1 °F 78% 30.16 in 10.0 mi Calm Calm - N/A   Clear
8:53 PM 21.0 °F - 19.0 °F 92% 30.17 in 10.0 mi Calm Calm - N/A   Clear
9:53 PM 19.0 °F 12.3 °F 15.1 °F 85% 30.15 in 10.0 mi NNW 4.6 mph - N/A   Clear
10:53 PM 21.9 °F 12.5 °F 15.1 °F 75% 30.16 in 10.0 mi NNW 8.1 mph - N/A   Overcast
11:53 PM 21.9 °F 17.2 °F 17.1 °F 82% 30.13 in 10.0 mi North 3.5 mph - N/A   Partly Cloudy